Showing default

TOMORROW-S5, 63234

Orbit data source: Space-Track

TOMORROW-S5, 63234 is a payload satellite owned by Tomorrow.io (US) in SSO that was launched on Sat, 15 Mar 2025 UTC via an FALCON 9 launch vehicle from the Air Force Western Test Range (AFWTR). Payload-class satellites include a variety of spacecraft equipped with specific instruments for various scientific and technological missions. These include communications satellites like Starlink; space stations such as the ISS; scientific satellites like the Hubble; Earth observation satellites from companies like Planet Labs, Umbra, and HawkEye 360; GPS; miniature CubeSats for education and research; and military/defense satellites.

Loading next visibility...
Identifier
63234, 2025-052AA
Orbit
SSO
Last TLE update
15 hours ago
Origin
Manufacturer
Blue Canyon
Mission
Operational Defense Calibration
Bus & Motor
CUBESAT 6U, Unknown motor
Mass
12 kg wet, 12 kg dry
Launch date (UTC)
2025-03-15 (3 months ago)
Launch vehicle
FALCON 9
Launch site
Air Force Western Test Range (AFWTR)
Object type
Payload
Rocket body
Debris
Shape & HBR
Box, 0.3 m
Radar Cross Section
0.080 m², Medium (>0.1 m² and < 1m²)

Expand to show TLE details & history

TLE from 15 hours ago
0 TOMORROW-S5
1 63234U 25052AA  25169.69405398  .00008158  00000-0  40396-3 0  9996
2 63234  97.4378  63.3185 0007272 359.1987   0.9234 15.18016270 14615
Epoch: 2025-06-18T16:39Z
TLE epoch observation values (Epoch: 2025-06-18T16:39:26.263Z)
Latitude
-0.00005°
Longitude
-93.71334°
Altitude
509.912 km
Speed
7.612 km/s
True Right ascension
04h 13m 16s
True Declination
0° 00' 00"
Sunlit
Object was in daylight at epoch
Visualization orbit readout
Latitude
67.32151°
Longitude
104.99109°
Altitude
525.547 km
Speed
7.606 km/s
Apparent Right ascension
07h 05m 49s
Apparent Declination
44° 10' 32"
Sunlit
Object is in daylight
Visualization observer readout
Local Sidereal Time
18:13:43
Azimuth
350.662° N
Elevation
-5.094°
Doppler factor
1
Orbital elements
Apogee altitude
513.815 km
Perigee altitude
503.798 km
Semi-major axis
6,886.943 km
Eccentricity
0.00073
Inclination
97.4378°
RAAN
63.3185°
Arg. of periapsis
359.1987°
True anomaly
Unknown
Mean anomaly
0.9234°
Eccentric anomaly
Unknown
Mean motion
3.79755 °/min
Orbital period
94.8 mins
BSTAR
0.00040396
Loading maneuver chart data...
Loading SW <> Apogee altitude chart data...
Loading historical data...
Loading historical data...
Loading historical data...
Loading historical data...
Loading historical data...
Loading historical data...
Loading historical data...

TOMORROW-S5 Visibility forecast

Observer location: undefined°, undefined°

Span
Click to sort rows by Start time (UTC) header in descending order
Start Az.
Max El. time (UTC)
Max El. Az.
Max El.
End time (UTC)
End Az.
6 mins2025-06-19 16:31:05.541Z140.789° SSE2025-06-19 16:34:05.541Z76.413° E32.551°2025-06-19 16:37:05.541Z6.842° NNE
6 mins2025-06-20 05:37:05.541Z22.662° NE2025-06-20 05:39:05.541Z63.074° ENE40.648°2025-06-20 05:43:05.541Z183.25° SSW
|